| time (UTC) | temp F | wind direction | speed MPH | gust MPH | rain 1hr in | rain 24hr in | rain mn in | humidity % | barometer mb |
| 20260510090504 | 37 | 0 | 0.0 | 0.0 | 0.00 | 0.18 | 0.00 | 82 | 1011.4 |
| 20260510090004 | 37 | 0 | 0.0 | 0.0 | 0.00 | 0.18 | 0.00 | 82 | 1011.2 |
| 20260510085504 | 37 | 0 | 0.0 | 0.0 | 0.00 | 0.18 | 0.00 | 82 | 1011.2 |
| 20260510085004 | 38 | 0 | 0.0 | 0.0 | 0.00 | 0.18 | 0.00 | 82 | 1011.2 |
| 20260510084504 | 38 | 0 | 0.0 | 0.0 | 0.00 | 0.18 | 0.00 | 82 | 1011.0 |
| 20260510084004 | 38 | 0 | 0.0 | 0.0 | 0.00 | 0.18 | 0.00 | 81 | 1010.9 |
| 20260510083504 | 38 | 0 | 0.0 | 0.0 | 0.00 | 0.18 | 0.00 | 81 | 1010.8 |
| 20260510083004 | 38 | 0 | 0.0 | 0.0 | 0.00 | 0.18 | 0.00 | 81 | 1010.7 |
| 20260510082504 | 39 | 0 | 0.0 | 0.0 | 0.00 | 0.18 | 0.00 | 81 | 1010.6 |
| 20260510082004 | 39 | 0 | 0.0 | 0.0 | 0.00 | 0.18 | 0.00 | 81 | 1010.6 |
| 20260510081504 | 39 | 0 | 0.0 | 0.0 | 0.00 | 0.18 | 0.00 | 81 | 1010.4 |
| 20260510081004 | 39 | 0 | 0.0 | 0.0 | 0.00 | 0.18 | 0.00 | 81 | 1010.4 |
| 20260510080505 | 40 | 0 | 0.0 | 0.0 | 0.00 | 0.18 | 0.00 | 80 | 1010.5 |
| 20260510080004 | 40 | 0 | 0.0 | 0.0 | 0.00 | 0.18 | 0.00 | 80 | 1010.4 |
| 20260510075525 | 40 | 0 | 0.0 | 0.0 | 0.00 | 0.18 | 0.00 | 80 | 1010.5 |
| 20260510075004 | 40 | 0 | 0.0 | 0.0 | 0.00 | 0.18 | 0.00 | 80 | 1010.3 |
| 20260510074504 | 41 | 0 | 0.0 | 0.0 | 0.00 | 0.18 | 0.00 | 80 | 1010.2 |
| 20260510074025 | 41 | 0 | 0.0 | 0.0 | 0.00 | 0.18 | 0.00 | 79 | 1010.2 |
| 20260510073504 | 41 | 0 | 0.0 | 0.0 | 0.00 | 0.18 | 0.00 | 79 | 1010.1 |
| 20260510073004 | 41 | 0 | 0.0 | 0.0 | 0.00 | 0.18 | 0.00 | 79 | 1010.1 |
| 20260510072504 | 42 | 0 | 0.0 | 0.0 | 0.00 | 0.18 | 0.00 | 79 | 1010.0 |
| 20260510072004 | 42 | 0 | 0.0 | 0.0 | 0.00 | 0.18 | 0.00 | 78 | 1009.9 |
| 20260510071504 | 42 | 0 | 0.0 | 0.0 | 0.00 | 0.18 | 0.00 | 78 | 1009.9 |
| 20260510071004 | 42 | 0 | 0.0 | 0.0 | 0.00 | 0.18 | 0.00 | 78 | 1009.9 |
| 20260510070504 | 42 | 0 | 0.0 | 0.0 | 0.00 | 0.18 | 0.00 | 77 | 1009.9 |
| 20260510070004 | 43 | 21 | 0.0 | 0.0 | 0.00 | 0.18 | 0.00 | 77 | 1009.9 |
| 20260510065504 | 43 | 21 | 0.0 | 3.0 | 0.00 | 0.18 | 0.00 | 77 | 1009.9 |
| 20260510065025 | 43 | 22 | 1.0 | 3.0 | 0.00 | 0.18 | 0.00 | 77 | 1009.8 |
| 20260510064504 | 43 | 22 | 1.0 | 3.0 | 0.00 | 0.18 | 0.00 | 77 | 1009.8 |
| 20260510064004 | 44 | 22 | 1.0 | 4.0 | 0.00 | 0.18 | 0.00 | 77 | 1009.7 |
| 20260510063504 | 44 | 21 | 1.0 | 4.0 | 0.00 | 0.18 | 0.00 | 75 | 1009.7 |
| 20260510063025 | 44 | 20 | 0.0 | 3.0 | 0.00 | 0.18 | 0.00 | 75 | 1009.5 |
| 20260510062504 | 44 | 19 | 0.0 | 0.0 | 0.00 | 0.18 | 0.00 | 75 | 1009.7 |
| 20260510062005 | 44 | 19 | 1.0 | 3.0 | 0.00 | 0.18 | 0.00 | 75 | 1009.7 |
| 20260510061525 | 45 | 19 | 1.0 | 3.0 | 0.00 | 0.18 | 0.00 | 74 | 1009.8 |
| 20260510061004 | 45 | 18 | 2.0 | 5.0 | 0.00 | 0.18 | 0.00 | 74 | 1009.7 |
| 20260510060504 | 45 | 13 | 3.0 | 7.0 | 0.00 | 0.18 | 0.00 | 74 | 1009.7 |
| 20260510060004 | 45 | 15 | 3.0 | 7.0 | 0.00 | 0.18 | 0.00 | 74 | 1009.7 |
| 20260510055504 | 45 | 24 | 3.0 | 8.0 | 0.00 | 0.18 | 0.00 | 74 | 1009.7 |
| 20260510055004 | 45 | 26 | 3.0 | 7.0 | 0.00 | 0.18 | 0.00 | 73 | 1009.5 |
| 20260510054504 | 46 | 22 | 3.0 | 7.0 | 0.00 | 0.18 | 0.00 | 73 | 1009.4 |
| 20260510054004 | 46 | 21 | 4.0 | 9.0 | 0.00 | 0.18 | 0.00 | 73 | 1009.3 |
| 20260510053504 | 46 | 23 | 4.0 | 11.0 | 0.00 | 0.18 | 0.00 | 72 | 1009.3 |
| 20260510053004 | 46 | 23 | 3.0 | 8.0 | 0.00 | 0.18 | 0.00 | 72 | 1009.2 |
| 20260510052504 | 46 | 18 | 2.0 | 7.0 | 0.00 | 0.18 | 0.00 | 72 | 1009.2 |
| 20260510052004 | 46 | 18 | 2.0 | 7.0 | 0.00 | 0.18 | 0.00 | 71 | 1009.1 |
| 20260510051504 | 46 | 26 | 1.0 | 4.0 | 0.00 | 0.18 | 0.00 | 71 | 1008.9 |
| 20260510051004 | 47 | 26 | 1.0 | 3.0 | 0.00 | 0.18 | 0.00 | 71 | 1008.9 |
| 20260510050504 | 47 | 25 | 2.0 | 5.0 | 0.00 | 0.18 | 0.00 | 71 | 1008.7 |
| 20260510050004 | 47 | 25 | 2.0 | 5.0 | 0.00 | 0.18 | 0.00 | 71 | 1008.9 |
| 20260510045504 | 47 | 24 | 2.0 | 4.0 | 0.00 | 0.18 | 0.00 | 72 | 1008.7 |
| 20260510045004 | 47 | 24 | 2.0 | 7.0 | 0.00 | 0.18 | 0.00 | 72 | 1008.6 |
| 20260510044504 | 47 | 26 | 3.0 | 7.0 | 0.00 | 0.18 | 0.00 | 72 | 1008.5 |
| 20260510044004 | 48 | 29 | 2.0 | 8.0 | 0.00 | 0.18 | 0.00 | 72 | 1008.4 |
| 20260510043505 | 48 | 30 | 2.0 | 5.0 | 0.00 | 0.18 | 0.00 | 73 | 1008.3 |
| 20260510043004 | 48 | 30 | 2.0 | 4.0 | 0.00 | 0.18 | 0.00 | 73 | 1008.2 |
| 20260510042504 | 48 | 26 | 2.0 | 11.0 | 0.00 | 0.18 | 0.00 | 72 | 1008.2 |
| 20260510042004 | 48 | 24 | 2.0 | 7.0 | 0.00 | 0.18 | 0.00 | 72 | 1008.2 |
| 20260510041504 | 48 | 24 | 2.0 | 4.0 | 0.00 | 0.18 | 0.00 | 72 | 1008.0 |
| 20260510041004 | 49 | 25 | 1.0 | 4.0 | 0.00 | 0.18 | 0.00 | 72 | 1007.7 |
| 20260510040504 | 49 | 25 | 0.0 | 1.0 | 0.00 | 0.18 | 0.00 | 71 | 1007.5 |
| 20260510040005 | 49 | 24 | 0.0 | 4.0 | 0.00 | 0.18 | 0.00 | 71 | 1007.4 |
| 20260510035525 | 49 | 24 | 1.0 | 3.0 | 0.00 | 0.18 | 0.18 | 71 | 1007.4 |
| 20260510035025 | 49 | 24 | 1.0 | 4.0 | 0.00 | 0.18 | 0.18 | 71 | 1007.4 |
| 20260510034504 | 49 | 24 | 1.0 | 4.0 | 0.00 | 0.18 | 0.18 | 71 | 1007.4 |
| 20260510034004 | 49 | 24 | 1.0 | 4.0 | 0.00 | 0.18 | 0.18 | 71 | 1007.5 |
| 20260510033504 | 50 | 24 | 1.0 | 4.0 | 0.00 | 0.18 | 0.18 | 71 | 1007.3 |
| 20260510033025 | 50 | 24 | 1.0 | 4.0 | 0.00 | 0.18 | 0.18 | 71 | 1007.2 |
| 20260510032525 | 50 | 24 | 1.0 | 4.0 | 0.00 | 0.18 | 0.18 | 71 | 1007.3 |
| 20260510032004 | 50 | 24 | 1.0 | 4.0 | 0.00 | 0.18 | 0.18 | 71 | 1007.2 |
| 20260510031504 | 50 | 22 | 1.0 | 4.0 | 0.00 | 0.18 | 0.18 | 71 | 1006.9 |
| 20260510031004 | 51 | 20 | 2.0 | 5.0 | 0.00 | 0.18 | 0.18 | 72 | 1006.8 |
| 20260510030503 | 51 | 19 | 1.0 | 4.0 | 0.00 | 0.18 | 0.18 | 72 | 1007.0 |
| 20260510030025 | 51 | 19 | 1.0 | 4.0 | 0.00 | 0.18 | 0.18 | 71 | 1006.8 |
| 20260510025503 | 52 | 19 | 0.0 | 4.0 | 0.00 | 0.18 | 0.18 | 71 | 1006.6 |
| 20260510025025 | 52 | 19 | 0.0 | 3.0 | 0.00 | 0.18 | 0.18 | 71 | 1006.6 |
| 20260510024504 | 52 | 19 | 0.0 | 1.0 | 0.00 | 0.18 | 0.18 | 71 | 1006.5 |
| 20260510024004 | 52 | 19 | 0.0 | 1.0 | 0.00 | 0.18 | 0.18 | 71 | 1006.5 |
| 20260510023525 | 53 | 19 | 0.0 | 1.0 | 0.00 | 0.18 | 0.18 | 71 | 1006.5 |
| 20260510023004 | 53 | 19 | 0.0 | 1.0 | 0.00 | 0.18 | 0.18 | 71 | 1006.5 |
| 20260510022525 | 53 | 19 | 1.0 | 3.0 | 0.00 | 0.18 | 0.18 | 71 | 1006.5 |
| 20260510022004 | 53 | 20 | 2.0 | 7.0 | 0.00 | 0.18 | 0.18 | 71 | 1006.6 |
| 20260510021524 | 53 | 23 | 2.0 | 5.0 | 0.00 | 0.18 | 0.18 | 71 | 1006.2 |
| 20260510021003 | 53 | 24 | 3.0 | 11.0 | 0.00 | 0.18 | 0.18 | 71 | 1005.8 |
| 20260510020525 | 53 | 25 | 2.0 | 8.0 | 0.00 | 0.18 | 0.18 | 71 | 1005.7 |
| 20260510020004 | 54 | 25 | 2.0 | 5.0 | 0.00 | 0.18 | 0.18 | 71 | 1005.6 |
| 20260510015504 | 54 | 11 | 3.0 | 5.0 | 0.00 | 0.18 | 0.18 | 71 | 1005.6 |
| 20260510015003 | 54 | 1 | 4.0 | 11.0 | 0.00 | 0.18 | 0.18 | 71 | 1005.6 |
| 20260510014503 | 54 | 360 | 4.0 | 8.0 | 0.00 | 0.18 | 0.18 | 71 | 1005.5 |
| 20260510014003 | 54 | 360 | 3.0 | 8.0 | 0.00 | 0.18 | 0.18 | 71 | 1005.6 |
| 20260510013503 | 54 | 360 | 4.0 | 12.0 | 0.00 | 0.18 | 0.18 | 71 | 1005.4 |
| 20260510013004 | 55 | 360 | 4.0 | 13.0 | 0.00 | 0.18 | 0.18 | 71 | 1005.1 |
| 20260510012524 | 55 | 360 | 3.0 | 8.0 | 0.00 | 0.18 | 0.18 | 72 | 1004.9 |
| 20260510012004 | 55 | 360 | 4.0 | 11.0 | 0.00 | 0.18 | 0.18 | 74 | 1004.8 |
| 20260510011504 | 55 | 360 | 4.0 | 13.0 | 0.00 | 0.18 | 0.18 | 75 | 1004.7 |
| 20260510011025 | 55 | 360 | 3.0 | 11.0 | 0.00 | 0.18 | 0.18 | 77 | 1004.7 |
| 20260510010504 | 56 | 360 | 1.0 | 3.0 | 0.00 | 0.18 | 0.18 | 79 | 1004.6 |
| 20260510010004 | 57 | 360 | 0.0 | 3.0 | 0.00 | 0.18 | 0.18 | 81 | 1004.3 |
| 20260510005525 | 57 | 360 | 0.0 | 1.0 | 0.00 | 0.18 | 0.18 | 81 | 1004.2 |
| 20260510005004 | 57 | 360 | 0.0 | 1.0 | 0.00 | 0.18 | 0.18 | 81 | 1004.2 |
| 20260510004524 | 57 | 360 | 1.0 | 1.0 | 0.00 | 0.18 | 0.18 | 81 | 1004.1 |
| 20260510004003 | 57 | 360 | 2.0 | 5.0 | 0.00 | 0.18 | 0.18 | 81 | 1004.1 |
| 20260510003504 | 57 | 360 | 4.0 | 7.0 | 0.00 | 0.18 | 0.18 | 81 | 1004.0 |
| 20260510003024 | 57 | 360 | 3.0 | 15.0 | 0.00 | 0.18 | 0.18 | 81 | 1004.0 |
| 20260510002503 | 58 | 360 | 1.0 | 5.0 | 0.00 | 0.18 | 0.18 | 81 | 1003.8 |
| 20260510002003 | 58 | 360 | 0.0 | 0.0 | 0.00 | 0.18 | 0.18 | 81 | 1003.5 |
| 20260510001504 | 58 | 358 | 0.0 | 3.0 | 0.00 | 0.18 | 0.18 | 81 | 1003.3 |
| 20260510001004 | 58 | 301 | 0.0 | 1.0 | 0.00 | 0.18 | 0.18 | 81 | 1003.3 |
| 20260510000504 | 58 | 310 | 0.0 | 3.0 | 0.00 | 0.18 | 0.18 | 81 | 1003.1 |
| 20260510000024 | 58 | 264 | 0.0 | 0.0 | 0.00 | 0.18 | 0.18 | 81 | 1003.1 |
| 20260509235503 | 58 | 246 | 1.0 | 3.0 | 0.00 | 0.18 | 0.18 | 81 | 1003.0 |
| 20260509235003 | 58 | 240 | 1.0 | 4.0 | 0.00 | 0.18 | 0.18 | 81 | 1003.0 |
| 20260509234504 | 58 | 241 | 1.0 | 3.0 | 0.00 | 0.18 | 0.18 | 81 | 1002.9 |
| 20260509234003 | 58 | 243 | 2.0 | 5.0 | 0.00 | 0.18 | 0.18 | 81 | 1003.0 |
| 20260509233503 | 58 | 254 | 2.0 | 4.0 | 0.00 | 0.18 | 0.18 | 80 | 1002.8 |
| 20260509233024 | 58 | 265 | 2.0 | 4.0 | 0.00 | 0.18 | 0.18 | 80 | 1002.8 |
| 20260509232503 | 58 | 229 | 4.0 | 5.0 | 0.00 | 0.18 | 0.18 | 80 | 1002.7 |
| 20260509232025 | 58 | 220 | 4.0 | 8.0 | 0.00 | 0.18 | 0.18 | 80 | 1002.7 |
| 20260509231503 | 58 | 217 | 4.0 | 7.0 | 0.00 | 0.18 | 0.18 | 80 | 1002.8 |
| 20260509231024 | 58 | 216 | 3.0 | 8.0 | 0.00 | 0.18 | 0.18 | 80 | 1002.7 |
| 20260509230503 | 59 | 215 | 3.0 | 7.0 | 0.00 | 0.18 | 0.18 | 79 | 1002.7 |
| 20260509230003 | 59 | 215 | 3.0 | 7.0 | 0.00 | 0.18 | 0.18 | 79 | 1002.6 |
| 20260509225503 | 59 | 217 | 2.0 | 4.0 | 0.00 | 0.18 | 0.18 | 78 | 1002.6 |
| 20260509225003 | 59 | 217 | 3.0 | 4.0 | 0.00 | 0.18 | 0.18 | 77 | 1002.4 |
| 20260509224503 | 60 | 216 | 3.0 | 7.0 | 0.00 | 0.18 | 0.18 | 77 | 1002.4 |
| 20260509224004 | 60 | 216 | 3.0 | 7.0 | 0.00 | 0.18 | 0.18 | 77 | 1002.2 |
| 20260509223503 | 60 | 214 | 3.0 | 5.0 | 0.00 | 0.18 | 0.18 | 77 | 1002.0 |
| 20260509223024 | 60 | 207 | 3.0 | 7.0 | 0.00 | 0.18 | 0.18 | 77 | 1001.9 |
| 20260509222503 | 60 | 197 | 4.0 | 8.0 | 0.00 | 0.18 | 0.18 | 77 | 1001.8 |
| 20260509222004 | 59 | 201 | 4.0 | 8.0 | 0.00 | 0.18 | 0.18 | 77 | 1001.8 |
| 20260509221503 | 59 | 210 | 3.0 | 9.0 | 0.00 | 0.18 | 0.18 | 77 | 1001.7 |
| 20260509221003 | 59 | 216 | 5.0 | 7.0 | 0.00 | 0.18 | 0.18 | 77 | 1001.8 |
| 20260509220503 | 59 | 221 | 5.0 | 11.0 | 0.00 | 0.18 | 0.18 | 77 | 1001.6 |
| 20260509220003 | 59 | 216 | 4.0 | 8.0 | 0.00 | 0.18 | 0.18 | 77 | 1001.6 |
| 20260509215503 | 58 | 206 | 4.0 | 9.0 | 0.00 | 0.18 | 0.18 | 77 | 1001.5 |
| 20260509215003 | 58 | 211 | 6.0 | 9.0 | 0.00 | 0.18 | 0.18 | 77 | 1001.5 |
| 20260509214504 | 58 | 216 | 7.0 | 13.0 | 0.00 | 0.18 | 0.18 | 77 | 1001.5 |
| 20260509214025 | 58 | 216 | 5.0 | 12.0 | 0.00 | 0.18 | 0.18 | 78 | 1001.6 |
| 20260509213504 | 58 | 218 | 4.0 | 9.0 | 0.00 | 0.18 | 0.18 | 79 | 1001.6 |
| 20260509213004 | 57 | 219 | 4.0 | 8.0 | 0.01 | 0.18 | 0.18 | 80 | 1001.9 |
| 20260509212503 | 56 | 276 | 3.0 | 9.0 | 0.02 | 0.18 | 0.18 | 81 | 1001.8 |
| 20260509212024 | 56 | 340 | 2.0 | 5.0 | 0.02 | 0.18 | 0.18 | 82 | 1001.9 |
| 20260509211503 | 55 | 344 | 2.0 | 5.0 | 0.15 | 0.18 | 0.18 | 82 | 1002.0 |
| 20260509211003 | 55 | 349 | 2.0 | 7.0 | 0.18 | 0.18 | 0.18 | 82 | 1002.0 |
| 20260509210524 | 55 | 346 | 2.0 | 8.0 | 0.18 | 0.18 | 0.18 | 83 | 1001.9 |
| 20260509210024 | 54 | 333 | 2.0 | 7.0 | 0.18 | 0.18 | 0.18 | 83 | 1002.1 |
| 20260509205503 | 54 | 348 | 3.0 | 9.0 | 0.18 | 0.18 | 0.18 | 84 | 1002.0 |
| 20260509205024 | 54 | 336 | 3.0 | 7.0 | 0.18 | 0.18 | 0.18 | 84 | 1002.0 |
| 20260509204504 | 53 | 316 | 2.0 | 8.0 | 0.18 | 0.18 | 0.18 | 85 | 1002.1 |
| 20260509204003 | 53 | 350 | 2.0 | 4.0 | 0.18 | 0.18 | 0.18 | 84 | 1002.1 |
| 20260509203503 | 53 | 303 | 4.0 | 8.0 | 0.18 | 0.18 | 0.18 | 83 | 1002.1 |
| 20260509203003 | 54 | 308 | 6.0 | 13.0 | 0.17 | 0.17 | 0.17 | 82 | 1002.3 |
| 20260509202524 | 56 | 349 | 8.0 | 19.0 | 0.17 | 0.17 | 0.17 | 81 | 1002.4 |
| 20260509202003 | 58 | 360 | 10.0 | 21.0 | 0.16 | 0.16 | 0.16 | 79 | 1002.4 |
| 20260509201503 | 61 | 341 | 8.0 | 28.0 | 0.03 | 0.03 | 0.03 | 78 | 1002.7 |
| 20260509201003 | 61 | 282 | 6.0 | 15.0 | 0.00 | 0.00 | 0.00 | 77 | 1002.0 |
| 20260509200503 | 61 | 254 | 6.0 | 19.0 | 0.00 | 0.00 | 0.00 | 75 | 1001.5 |
| 20260509200004 | 61 | 221 | 6.0 | 15.0 | 0.00 | 0.00 | 0.00 | 74 | 1001.4 |
| 20260509195525 | 61 | 230 | 5.0 | 13.0 | 0.00 | 0.00 | 0.00 | 74 | 1001.3 |
| 20260509195024 | 61 | 326 | 5.0 | 15.0 | 0.00 | 0.00 | 0.00 | 74 | 1001.3 |
| 20260509194503 | 61 | 252 | 5.0 | 20.0 | 0.00 | 0.00 | 0.00 | 74 | 1001.3 |
| 20260509194003 | 61 | 279 | 5.0 | 16.0 | 0.00 | 0.00 | 0.00 | 74 | 1001.2 |
| 20260509193503 | 61 | 264 | 7.0 | 20.0 | 0.00 | 0.00 | 0.00 | 74 | 1001.3 |
| 20260509193004 | 61 | 275 | 10.0 | 17.0 | 0.00 | 0.00 | 0.00 | 74 | 1001.4 |
| 20260509192503 | 62 | 353 | 12.0 | 20.0 | 0.00 | 0.00 | 0.00 | 74 | 1001.3 |
| 20260509192025 | 62 | 358 | 11.0 | 29.0 | 0.00 | 0.00 | 0.00 | 73 | 1001.2 |
| 20260509191524 | 62 | 360 | 7.0 | 21.0 | 0.00 | 0.00 | 0.00 | 73 | 1001.3 |
| 20260509191003 | 62 | 360 | 7.0 | 12.0 | 0.00 | 0.00 | 0.00 | 73 | 1001.6 |
| 20260509190503 | 62 | 360 | 10.0 | 20.0 | 0.00 | 0.00 | 0.00 | 73 | 1001.7 |
| 20260509190003 | 62 | 360 | 10.0 | 29.0 | 0.00 | 0.00 | 0.00 | 73 | 1001.6 |
| 20260509185503 | 62 | 360 | 10.0 | 20.0 | 0.00 | 0.00 | 0.00 | 73 | 1001.7 |
| 20260509185003 | 62 | 360 | 11.0 | 21.0 | 0.00 | 0.00 | 0.00 | 75 | 1001.5 |
| 20260509184503 | 62 | 348 | 12.0 | 20.0 | 0.00 | 0.00 | 0.00 | 77 | 1001.5 |
| 20260509184003 | 62 | 226 | 11.0 | 21.0 | 0.00 | 0.00 | 0.00 | 77 | 1001.6 |
| 20260509183503 | 62 | 212 | 11.0 | 19.0 | 0.00 | 0.00 | 0.00 | 75 | 1001.6 |
| 20260509183003 | 62 | 212 | 10.0 | 24.0 | 0.00 | 0.00 | 0.00 | 75 | 1001.7 |
| 20260509182503 | 62 | 211 | 9.0 | 27.0 | 0.00 | 0.00 | 0.00 | 75 | 1001.8 |
| 20260509182003 | 62 | 214 | 9.0 | 23.0 | 0.00 | 0.00 | 0.00 | 74 | 1001.8 |
| 20260509181503 | 62 | 216 | 8.0 | 17.0 | 0.00 | 0.00 | 0.00 | 75 | 1001.8 |
| 20260509181003 | 62 | 216 | 8.0 | 15.0 | 0.00 | 0.00 | 0.00 | 77 | 1001.9 |
| 20260509180503 | 62 | 221 | 7.0 | 15.0 | 0.00 | 0.00 | 0.00 | 77 | 1002.1 |
| 20260509180003 | 62 | 219 | 7.0 | 13.0 | 0.00 | 0.00 | 0.00 | 75 | 1002.1 |
| 20260509175503 | 62 | 213 | 6.0 | 16.0 | 0.00 | 0.00 | 0.00 | 74 | 1002.4 |
| 20260509175003 | 62 | 351 | 7.0 | 8.0 | 0.00 | 0.00 | 0.00 | 74 | 1002.6 |
| 20260509174524 | 62 | 357 | 10.0 | 23.0 | 0.00 | 0.00 | 0.00 | 74 | 1002.4 |
| 20260509174003 | 63 | 240 | 11.0 | 24.0 | 0.00 | 0.00 | 0.00 | 71 | 1002.0 |
| 20260509173503 | 64 | 212 | 11.0 | 28.0 | 0.00 | 0.00 | 0.00 | 70 | 1001.8 |
| 20260509173003 | 65 | 199 | 11.0 | 24.0 | 0.00 | 0.00 | 0.00 | 72 | 1001.9 |
| 20260509172503 | 65 | 196 | 12.0 | 27.0 | 0.00 | 0.00 | 0.00 | 73 | 1001.8 |
| 20260509172003 | 65 | 208 | 12.0 | 20.0 | 0.00 | 0.00 | 0.00 | 74 | 1001.8 |
| 20260509171503 | 65 | 214 | 11.0 | 21.0 | 0.00 | 0.00 | 0.00 | 74 | 1001.9 |
| 20260509171003 | 64 | 202 | 10.0 | 19.0 | 0.00 | 0.00 | 0.00 | 75 | 1002.1 |
| 20260509170504 | 65 | 196 | 10.0 | 19.0 | 0.00 | 0.00 | 0.00 | 73 | 1002.3 |
| 20260509170003 | 65 | 198 | 9.0 | 20.0 | 0.00 | 0.00 | 0.00 | 73 | 1002.4 |
| 20260509165504 | 66 | 192 | 10.0 | 16.0 | 0.00 | 0.00 | 0.00 | 73 | 1002.4 |
| 20260509165024 | 65 | 184 | 11.0 | 19.0 | 0.00 | 0.00 | 0.00 | 52 | 1002.3 |
| 20260509164503 | 65 | 181 | 11.0 | 24.0 | 0.00 | 0.00 | 0.00 | 72 | 1002.2 |
| 20260509164003 | 66 | 189 | 9.0 | 20.0 | 0.00 | 0.00 | 0.00 | 70 | 1002.5 |
| 20260509163504 | 66 | 211 | 8.0 | 15.0 | 0.00 | 0.00 | 0.00 | 70 | 1002.6 |
| 20260509163004 | 66 | 214 | 9.0 | 15.0 | 0.00 | 0.00 | 0.00 | 68 | 1002.7 |
| 20260509162525 | 66 | 201 | 10.0 | 19.0 | 0.00 | 0.00 | 0.00 | 68 | 1002.8 |
| 20260509162004 | 66 | 205 | 7.0 | 20.0 | 0.00 | 0.00 | 0.00 | 67 | 1002.7 |
| 20260509161525 | 66 | 222 | 4.0 | 8.0 | 0.00 | 0.00 | 0.00 | 67 | 1003.0 |
| 20260509161004 | 66 | 202 | 4.0 | 9.0 | 0.00 | 0.00 | 0.00 | 66 | 1003.1 |
| 20260509160504 | 65 | 222 | 4.0 | 8.0 | 0.00 | 0.00 | 0.00 | 66 | 1002.9 |
| 20260509160004 | 64 | 261 | 3.0 | 11.0 | 0.00 | 0.00 | 0.00 | 68 | 1003.3 |
| 20260509155504 | 64 | 239 | 4.0 | 13.0 | 0.00 | 0.00 | 0.00 | 66 | 1003.5 |
| 20260509155004 | 64 | 268 | 4.0 | 12.0 | 0.00 | 0.00 | 0.00 | 67 | 1003.9 |
| 20260509154526 | 64 | 293 | 3.0 | 11.0 | 0.00 | 0.00 | 0.00 | 66 | 1003.9 |
| 20260509154004 | 64 | 247 | 3.0 | 15.0 | 0.00 | 0.00 | 0.00 | 67 | 1004.1 |
| 20260509153504 | 64 | 218 | 4.0 | 13.0 | 0.00 | 0.00 | 0.00 | 67 | 1004.0 |
| 20260509153004 | 65 | 228 | 4.0 | 9.0 | 0.00 | 0.00 | 0.00 | 66 | 1004.0 |
| 20260509152504 | 65 | 222 | 5.0 | 13.0 | 0.00 | 0.00 | 0.00 | 42 | 1003.8 |
| 20260509152004 | 65 | 216 | 7.0 | 12.0 | 0.00 | 0.00 | 0.00 | 69 | 1003.8 |
| 20260509151504 | 64 | 217 | 9.0 | 19.0 | 0.00 | 0.00 | 0.00 | 68 | 1003.7 |
| 20260509151005 | 64 | 220 | 8.0 | 19.0 | 0.00 | 0.00 | 0.00 | 68 | 1003.8 |
| 20260509150504 | 64 | 215 | 8.0 | 21.0 | 0.00 | 0.00 | 0.00 | 68 | 1003.8 |
| 20260509150004 | 64 | 207 | 9.0 | 20.0 | 0.00 | 0.00 | 0.00 | 48 | 1003.7 |
| 20260509145504 | 63 | 210 | 7.0 | 17.0 | 0.00 | 0.00 | 0.00 | 69 | 1003.6 |
| 20260509145004 | 63 | 216 | 4.0 | 12.0 | 0.00 | 0.00 | 0.00 | 70 | 1003.7 |
| 20260509144504 | 63 | 216 | 4.0 | 11.0 | 0.00 | 0.00 | 0.00 | 71 | 1004.0 |
| 20260509144025 | 63 | 223 | 5.0 | 15.0 | 0.00 | 0.00 | 0.00 | 72 | 1004.1 |
| 20260509143504 | 62 | 212 | 6.0 | 11.0 | 0.00 | 0.00 | 0.00 | 73 | 1004.1 |
| 20260509143004 | 62 | 203 | 7.0 | 13.0 | 0.00 | 0.00 | 0.00 | 74 | 1003.8 |
| 20260509142504 | 61 | 206 | 7.0 | 16.0 | 0.00 | 0.00 | 0.00 | 73 | 1003.7 |
| 20260509142004 | 61 | 209 | 6.0 | 16.0 | 0.00 | 0.00 | 0.00 | 73 | 1003.9 |
| 20260509141504 | 60 | 217 | 4.0 | 15.0 | 0.00 | 0.00 | 0.00 | 74 | 1004.0 |
| 20260509141025 | 60 | 236 | 3.0 | 11.0 | 0.00 | 0.00 | 0.00 | 75 | 1004.0 |
| 20260509140504 | 59 | 241 | 3.0 | 7.0 | 0.00 | 0.00 | 0.00 | 75 | 1004.0 |
| 20260509140005 | 59 | 229 | 3.0 | 5.0 | 0.00 | 0.00 | 0.00 | 75 | 1004.1 |
| 20260509135504 | 58 | 230 | 4.0 | 13.0 | 0.00 | 0.00 | 0.00 | 75 | 1004.3 |
| 20260509135004 | 58 | 223 | 5.0 | 9.0 | 0.00 | 0.00 | 0.00 | 75 | 1004.2 |
| 20260509134504 | 57 | 218 | 5.0 | 11.0 | 0.00 | 0.00 | 0.00 | 75 | 1004.3 |
| 20260509134004 | 57 | 215 | 5.0 | 8.0 | 0.00 | 0.00 | 0.00 | 74 | 1004.3 |
| 20260509133525 | 56 | 214 | 6.0 | 11.0 | 0.00 | 0.00 | 0.00 | 74 | 1004.3 |
| 20260509133004 | 56 | 224 | 6.0 | 13.0 | 0.00 | 0.00 | 0.00 | 74 | 1004.3 |
| 20260509132504 | 55 | 333 | 6.0 | 9.0 | 0.00 | 0.00 | 0.00 | 73 | 1004.4 |
| 20260509132004 | 54 | 350 | 6.0 | 13.0 | 0.00 | 0.00 | 0.00 | 74 | 1004.5 |
| 20260509131504 | 53 | 278 | 5.0 | 11.0 | 0.00 | 0.00 | 0.00 | 74 | 1004.5 |
| 20260509131004 | 53 | 223 | 4.0 | 9.0 | 0.00 | 0.00 | 0.00 | 74 | 1004.5 |
| 20260509130525 | 52 | 227 | 2.0 | 9.0 | 0.00 | 0.00 | 0.00 | 75 | 1004.5 |
| 20260509130004 | 52 | 217 | 2.0 | 4.0 | 0.00 | 0.00 | 0.00 | 75 | 1004.5 |
| 20260509125504 | 52 | 203 | 4.0 | 8.0 | 0.00 | 0.00 | 0.00 | 75 | 1004.7 |
| 20260509125004 | 52 | 204 | 4.0 | 11.0 | 0.00 | 0.00 | 0.00 | 75 | 1004.7 |
| 20260509124504 | 51 | 213 | 4.0 | 5.0 | 0.00 | 0.00 | 0.00 | 77 | 1004.6 |
| 20260509124004 | 51 | 207 | 5.0 | 12.0 | 0.00 | 0.00 | 0.00 | 77 | 1004.7 |
| 20260509123504 | 51 | 205 | 4.0 | 9.0 | 0.00 | 0.00 | 0.00 | 77 | 1004.6 |
| 20260509123004 | 51 | 197 | 3.0 | 8.0 | 0.00 | 0.00 | 0.00 | 77 | 1004.7 |
| 20260509122504 | 51 | 205 | 3.0 | 8.0 | 0.00 | 0.00 | 0.00 | 77 | 1004.8 |
| 20260509122004 | 51 | 220 | 3.0 | 8.0 | 0.00 | 0.00 | 0.00 | 77 | 1004.7 |
| 20260509121504 | 51 | 221 | 4.0 | 5.0 | 0.00 | 0.00 | 0.00 | 77 | 1004.7 |
| 20260509121004 | 51 | 218 | 3.0 | 9.0 | 0.00 | 0.00 | 0.00 | 77 | 1004.8 |
| 20260509120504 | 51 | 190 | 2.0 | 8.0 | 0.00 | 0.00 | 0.00 | 77 | 1004.8 |
| 20260509120004 | 51 | 186 | 3.0 | 8.0 | 0.00 | 0.00 | 0.00 | 77 | 1004.9 |
| 20260509115525 | 50 | 210 | 3.0 | 11.0 | 0.00 | 0.00 | 0.00 | 77 | 1004.8 |
| 20260509115004 | 50 | 218 | 4.0 | 8.0 | 0.00 | 0.00 | 0.00 | 77 | 1004.8 |
| 20260509114504 | 50 | 222 | 5.0 | 11.0 | 0.00 | 0.00 | 0.00 | 77 | 1004.7 |
| 20260509114004 | 50 | 222 | 4.0 | 9.0 | 0.00 | 0.00 | 0.00 | 77 | 1004.7 |
| 20260509113504 | 50 | 218 | 4.0 | 12.0 | 0.00 | 0.00 | 0.00 | 77 | 1004.9 |
| 20260509113025 | 50 | 214 | 4.0 | 9.0 | 0.00 | 0.00 | 0.00 | 77 | 1005.0 |
| 20260509112504 | 50 | 204 | 3.0 | 7.0 | 0.00 | 0.00 | 0.00 | 77 | 1005.0 |
| 20260509112004 | 50 | 203 | 4.0 | 9.0 | 0.00 | 0.00 | 0.00 | 77 | 1004.8 |
| 20260509111525 | 50 | 210 | 3.0 | 9.0 | 0.00 | 0.00 | 0.00 | 77 | 1004.7 |
| 20260509111004 | 50 | 229 | 3.0 | 11.0 | 0.00 | 0.00 | 0.00 | 77 | 1004.8 |
| 20260509110525 | 50 | 253 | 3.0 | 11.0 | 0.00 | 0.00 | 0.00 | 77 | 1004.8 |
| 20260509110004 | 50 | 354 | 3.0 | 8.0 | 0.00 | 0.00 | 0.00 | 77 | 1004.7 |
| 20260509105504 | 50 | 360 | 4.0 | 8.0 | 0.00 | 0.00 | 0.00 | 77 | 1004.6 |
| 20260509105004 | 50 | 360 | 3.0 | 7.0 | 0.00 | 0.00 | 0.00 | 77 | 1004.5 |
| 20260509104504 | 50 | 360 | 2.0 | 8.0 | 0.00 | 0.00 | 0.00 | 77 | 1004.5 |
| 20260509104004 | 50 | 360 | 2.0 | 4.0 | 0.00 | 0.00 | 0.00 | 77 | 1004.5 |
| 20260509103525 | 50 | 360 | 2.0 | 7.0 | 0.00 | 0.00 | 0.00 | 78 | 1004.5 |
| 20260509103004 | 50 | 360 | 2.0 | 7.0 | 0.00 | 0.00 | 0.00 | 78 | 1004.5 |
| 20260509102525 | 50 | 360 | 3.0 | 7.0 | 0.00 | 0.00 | 0.00 | 78 | 1004.5 |
| 20260509102004 | 50 | 360 | 3.0 | 7.0 | 0.00 | 0.00 | 0.00 | 78 | 1004.7 |
| 20260509101504 | 50 | 360 | 4.0 | 8.0 | 0.00 | 0.00 | 0.00 | 78 | 1004.8 |
| 20260509101004 | 50 | 360 | 3.0 | 8.0 | 0.00 | 0.00 | 0.00 | 78 | 1004.7 |
| 20260509100504 | 50 | 360 | 3.0 | 5.0 | 0.00 | 0.00 | 0.00 | 78 | 1004.9 |
| 20260509100025 | 50 | 360 | 3.0 | 8.0 | 0.00 | 0.00 | 0.00 | 78 | 1004.9 |
| 20260509095504 | 50 | 360 | 3.0 | 7.0 | 0.00 | 0.00 | 0.00 | 79 | 1004.9 |
| 20260509095004 | 50 | 360 | 3.0 | 7.0 | 0.00 | 0.00 | 0.00 | 79 | 1005.0 |
| 20260509094504 | 50 | 360 | 4.0 | 11.0 | 0.00 | 0.00 | 0.00 | 79 | 1004.9 |
| 20260509094025 | 50 | 360 | 3.0 | 11.0 | 0.00 | 0.00 | 0.00 | 79 | 1005.0 |
| 20260509093504 | 50 | 360 | 3.0 | 5.0 | 0.00 | 0.00 | 0.00 | 79 | 1004.9 |
| 20260509093004 | 50 | 360 | 4.0 | 11.0 | 0.00 | 0.00 | 0.00 | 79 | 1005.1 |
| 20260509092525 | 50 | 360 | 4.0 | 8.0 | 0.00 | 0.00 | 0.00 | 79 | 1005.0 |
| 20260509092004 | 50 | 360 | 3.0 | 8.0 | 0.00 | 0.00 | 0.00 | 79 | 1005.1 |
| 20260509091504 | 50 | 360 | 3.0 | 5.0 | 0.00 | 0.00 | 0.00 | 79 | 1005.0 |
| 20260509091004 | 50 | 360 | 4.0 | 8.0 | 0.00 | 0.00 | 0.00 | 79 | 1005.1 |